Date String (YYYY-MM-DD hh:mm:ss) UTC,Instrument flags,Ambient pressure (hPa),Sample flow (lpm),Bypass flow (lpm),Sample temperature (°C),Ambient temperature (°C),ASC tube jacket temperature (°C),LED temperature (°C),Box temperature (°C),Sample RH (%),Span deviation,Mass concentration (μg/m³),Mass concentration (μg/m³),Mass concentration (μg/m³)
DateTimeUTC,F1_M11,P_M11,Q1_M11,Q2_M11,T1_M11,T2_M11,T3_M11,T4_M11,T5_M11,U1_M11,ZSPAN_M11,X0_M11,X2_M11,X1_M11
2021-12-26 08:00:00,,0815.1,4.99,0.00,22.5,21.7,00.0,31.5,24.2,08.6,0000.0,0002.38,0000.99,0000.89
2021-12-26 08:01:00,,0815.0,5.00,0.00,22.5,21.7,00.0,31.5,24.2,08.6,0000.0,0002.21,0000.95,0000.87
2021-12-26 08:02:00,,0815.0,4.99,0.00,22.5,21.7,00.0,31.5,24.2,08.6,0000.0,0001.70,0000.94,0000.86
2021-12-26 08:03:00,,0815.1,5.00,0.00,22.5,21.7,00.0,31.5,24.2,08.6,0000.0,0001.72,0000.94,0000.85
2021-12-26 08:04:00,,0815.1,5.02,0.00,22.5,21.7,00.0,31.5,24.2,08.6,0000.0,0001.72,0000.92,0000.84
2021-12-26 08:05:00,,0814.7,4.98,0.00,22.5,21.7,00.0,31.4,24.2,08.5,0000.0,0001.71,0000.92,0000.83
2021-12-26 08:06:00,,0814.5,5.01,0.00,22.5,21.7,00.0,31.4,24.2,08.5,0000.0,0001.47,0000.92,0000.82
2021-12-26 08:07:00,,0814.4,5.00,0.00,22.5,21.7,00.0,31.4,24.2,08.5,0000.0,0001.38,0000.93,0000.82
2021-12-26 08:08:00,,0814.4,4.99,0.00,22.5,21.7,00.0,31.4,24.2,08.5,0000.0,0001.13,0000.90,0000.81
2021-12-26 08:09:00,,0814.4,5.02,0.00,22.5,21.7,00.0,31.4,24.2,08.4,0000.0,0001.14,0000.90,0000.80
2021-12-26 08:10:00,,0814.4,4.99,0.00,22.5,21.7,00.0,31.4,24.2,08.4,0000.0,0001.17,0000.91,0000.80
2021-12-26 08:11:00,,0814.4,4.99,0.00,22.5,21.7,00.0,31.4,24.2,08.4,0000.0,0001.15,0000.90,0000.79
2021-12-26 08:12:00,,0814.4,5.00,0.00,22.5,21.7,00.0,31.4,24.2,08.4,0000.0,0001.12,0000.89,0000.79
2021-12-26 08:13:00,,0814.4,5.01,0.00,22.5,21.7,00.0,31.4,24.2,08.3,0000.0,0001.09,0000.88,0000.79
2021-12-26 08:14:00,,0814.3,5.00,0.00,22.5,21.7,00.0,31.4,24.2,08.2,0000.0,0001.09,0000.89,0000.79
2021-12-26 08:15:00,,0814.3,5.02,0.00,22.5,21.7,00.0,31.4,24.2,08.3,0000.0,0001.12,0000.91,0000.80
2021-12-26 08:16:00,,0814.4,4.99,0.00,22.5,22.0,00.0,31.5,24.3,08.3,0000.0,0001.12,0000.91,0000.80
2021-12-26 08:17:00,,0814.4,5.01,0.00,22.6,22.8,00.0,31.5,24.6,08.3,0000.0,0001.10,0000.89,0000.80
2021-12-26 08:18:00,,0814.5,4.99,0.00,22.8,23.3,00.0,31.6,24.8,08.4,0000.0,0001.23,0000.87,0000.79
2021-12-26 08:19:00,,0814.5,5.01,0.00,22.8,23.2,00.0,31.6,24.8,08.8,0000.0,0001.30,0000.91,0000.79
2021-12-26 08:20:00,,0814.3,5.00,0.00,22.9,23.0,00.0,31.6,24.7,09.1,0000.0,0001.37,0000.94,0000.80
2021-12-26 08:21:00,,0814.3,4.99,0.00,22.9,22.8,00.0,31.6,24.7,09.2,0000.0,0001.35,0000.94,0000.81
2021-12-26 08:22:00,,0814.2,5.01,0.00,22.9,22.7,00.0,31.7,24.7,09.2,0000.0,0001.39,0000.97,0000.82
2021-12-26 08:23:00,,0814.3,5.01,0.00,22.9,22.6,00.0,31.7,24.7,09.3,0000.0,0001.45,0001.01,0000.84
2021-12-26 08:24:00,,0814.1,4.99,0.00,22.9,22.5,00.0,31.7,24.7,09.2,0000.0,0001.58,0001.08,0000.87
2021-12-26 08:25:00,,0814.2,5.00,0.00,22.9,22.4,00.0,31.7,24.7,09.3,0000.0,0001.70,0001.12,0000.90
2021-12-26 08:26:00,,0814.1,5.00,0.00,22.8,22.3,00.0,31.7,24.6,09.3,0000.0,0001.89,0001.18,0000.93
2021-12-26 08:27:00,,0814.1,4.99,0.00,22.8,22.2,00.0,31.7,24.6,09.3,0000.0,0002.01,0001.25,0000.97
2021-12-26 08:28:00,,0814.2,5.01,0.00,22.8,22.2,00.0,31.7,24.6,09.3,0000.0,0002.20,0001.35,0001.01
2021-12-26 08:29:00,,0814.2,5.01,0.00,22.8,22.1,00.0,31.7,24.6,09.3,0000.0,0002.27,0001.43,0001.06
2021-12-26 08:30:00,,0814.0,4.99,0.00,22.8,22.1,00.0,31.7,24.5,09.3,0000.0,0002.30,0001.46,0001.08
2021-12-26 08:31:00,,0814.0,5.01,0.00,22.8,22.1,00.0,31.7,24.5,09.3,0000.0,0002.30,0001.48,0001.12
2021-12-26 08:32:00,,0814.4,5.00,0.00,22.8,22.1,00.0,31.7,24.5,09.3,0000.0,0002.36,0001.53,0001.14
2021-12-26 08:33:00,,0814.2,4.98,0.00,22.8,22.0,00.0,31.7,24.5,09.3,0000.0,0002.38,0001.54,0001.16
2021-12-26 08:34:00,,0814.0,5.01,0.00,22.8,22.0,00.0,31.7,24.5,09.2,0000.0,0002.42,0001.55,0001.16
2021-12-26 08:35:00,,0814.3,5.00,0.00,22.8,22.0,00.0,31.7,24.5,09.2,0000.0,0002.42,0001.53,0001.15
2021-12-26 08:36:00,,0814.1,5.00,0.00,22.8,22.0,00.0,31.7,24.5,09.2,0000.0,0002.51,0001.51,0001.14
2021-12-26 08:37:00,,0813.9,4.99,0.00,22.7,22.0,00.0,31.7,24.5,09.2,0000.0,0002.46,0001.49,0001.13
2021-12-26 08:38:00,,0813.9,5.01,0.00,22.7,22.0,00.0,31.7,24.5,09.2,0000.0,0002.48,0001.48,0001.13
2021-12-26 08:39:00,,0813.8,5.00,0.00,22.7,22.0,00.0,31.7,24.5,09.1,0000.0,0002.33,0001.43,0001.12
2021-12-26 08:40:00,,0813.8,5.00,0.00,22.7,22.0,00.0,31.7,24.4,09.1,0000.0,0002.21,0001.38,0001.11
2021-12-26 08:41:00,,0814.0,4.98,0.00,22.7,21.9,00.0,31.7,24.4,09.1,0000.0,0002.11,0001.35,0001.10
2021-12-26 08:42:00,,0814.1,5.01,0.00,22.7,21.9,00.0,31.7,24.4,09.1,0000.0,0002.08,0001.32,0001.08
2021-12-26 08:43:00,,0814.3,5.00,0.00,22.7,21.9,00.0,31.7,24.5,09.2,0000.0,0002.05,0001.30,0001.08
2021-12-26 08:44:00,,0814.3,5.00,0.00,22.7,21.9,00.0,31.7,24.4,09.2,0000.0,0002.08,0001.33,0001.09
2021-12-26 08:45:00,,0814.3,4.99,0.00,22.7,21.9,00.0,31.7,24.4,09.2,0000.0,0002.10,0001.30,0001.09
2021-12-26 08:46:00,,0814.3,4.99,0.00,22.7,21.9,00.0,31.7,24.4,09.1,0000.0,0002.34,0001.29,0001.08
2021-12-26 08:47:00,,0814.3,4.99,0.00,22.7,21.9,00.0,31.6,24.4,09.1,0000.0,0002.46,0001.32,0001.09
2021-12-26 08:48:00,,0814.2,4.99,0.00,22.7,21.9,00.0,31.6,24.4,09.0,0000.0,0002.35,0001.31,0001.10
2021-12-26 08:49:00,,0814.1,5.01,0.00,22.7,21.8,00.0,31.6,24.4,09.0,0000.0,0002.33,0001.32,0001.11
2021-12-26 08:50:00,,0814.2,4.99,0.00,22.7,21.9,00.0,31.6,24.4,09.0,0000.0,0002.40,0001.35,0001.12
2021-12-26 08:51:00,,0814.3,5.02,0.00,22.7,21.8,00.0,31.6,24.4,09.0,0000.0,0003.21,0001.40,0001.11
2021-12-26 08:52:00,,0814.2,5.00,0.00,22.7,21.8,00.0,31.6,24.3,09.0,0000.0,0003.33,0001.41,0001.12
2021-12-26 08:53:00,,0814.2,4.99,0.00,22.6,21.8,00.0,31.6,24.3,09.0,0000.0,0003.40,0001.45,0001.14
2021-12-26 08:54:00,,0814.0,5.01,0.00,22.6,21.8,00.0,31.6,24.3,09.0,0000.0,0003.48,0001.48,0001.15
2021-12-26 08:55:00,,0814.2,5.00,0.00,22.6,21.8,00.0,31.6,24.3,09.0,0000.0,0003.46,0001.45,0001.15
2021-12-26 08:56:00,,0814.2,5.01,0.00,22.6,21.8,00.0,31.6,24.3,09.0,0000.0,0003.58,0001.49,0001.16
2021-12-26 08:57:00,,0814.2,4.99,0.00,22.6,21.8,00.0,31.6,24.3,09.0,0000.0,0003.43,0001.52,0001.18
2021-12-26 08:58:00,,0814.2,5.00,0.00,22.6,21.8,00.0,31.6,24.3,09.1,0000.0,0003.26,0001.53,0001.18
2021-12-26 08:59:00,,0814.1,5.00,0.00,22.6,21.8,00.0,31.6,24.3,09.1,0000.0,0003.27,0001.53,0001.18
